Вернуться в каталог

STARLINK-36754

АктивенСвязьSSO
NORAD 67725·PAYLOAD·🇺🇸 United States

Запущен Feb 11, 2026 с Vandenberg Space Force Base

Loading…

Ближайшие Пролёты (ближайшие 24 часа)

TLE

СвежийSource: CelesTrak SupGP

Эпоха: Sep 15, 2026, 03:53 UTC

1 67725C 26026E   26258.16229167 -.00012844  00000+0 -39869-3 0  2586
2 67725  97.2846 310.0223 0000862  82.5917 126.3347 15.33446960    12

Отслеживайте STARLINK-36754 в реальном времени с AllMySat

Download on the App Store